Regional Weather Roundup
Issued by NWS

Home | Current Version | Previous Version | Graphics & Text | Print | Product List | Glossary On
Versions: 1 2 3 4 5 6 7 8 9 10 11 12 13 14 15 16 17 18 19 20 21 22 23 24 25 26 27 28 29 30 31 32 33 34 35 36 37 38 39 40 41 42 43 44 45 46 47 48 49 50
000
ASUS45 KABQ 270510
RWRNM
NEW MEXICO REGIONAL WEATHER ROUNDUP
NATIONAL WEATHER SERVICE ALBUQUERQUE NM
1100 PM MDT WED APR 26 2017

NOTE: "FAIR" MEANS FEW OR NO CLOUDS BELOW 12,000 FEET AGL WITH NO
       SIGNIFICANT WEATHER OR OBSTRUCTIONS TO VISION.

      THIS PRODUCT IS RELEASED AS TWO VERSIONS.  ONE VERSION NEAR
      THE TOP OF THE HOUR CONTAINING PRELIMINARY DATA FROM ALBUQUERQUE
      AND OTHER STATIONS.  A FINAL VERSION WITH ADDITIONAL DATA IS
      ISSUED ABOUT 10 MINUTES AFTER THE HOUR.

NMZ501-503-504-510>518-270600-
NORTHWEST PLATEAU/NORTHCENTRAL MOUNTAINS

CITY           SKY/WX    TMP DP  RH WIND       PRES   REMARKS
FARMINGTON     FAIR      49  25  39 NE10      29.75S
LOS ALAMOS     FAIR      48  17  28 NE3       29.84F
SANTA FE       CLOUDY    51  23  33 SE3       29.80S
TAOS             N/A     43  23  45 E6        29.83F
ANGEL FIRE     CLOUDY    40  20  44 CALM      29.86F

$$
NMZ402-403-502-505>509-270600-
WESTCENTRAL MOUNTAINS/SOUTHWEST MOUNTAINS

CITY           SKY/WX    TMP DP  RH WIND       PRES   REMARKS
GALLUP         MOCLDY    56  29  35 W21       29.83S
GRANTS         CLOUDY    55  24  30 W9        29.85F
SILVER CITY    FAIR      59  19  21 W7        29.92R

$$
NMZ407-409-411-412-270600-
SOUTHERN DESERTS

CITY           SKY/WX    TMP DP  RH WIND       PRES   REMARKS
DEMING         FAIR      66  19  16 W18G25    29.85R
LAS CRUCES     FAIR      68  16  13 W22G30    29.83R
HOLLOMAN AFB   FAIR      65  17  15 SW10      29.80R
ALAMOGORDO     FAIR      63  19  19 S8        29.79S
T OR C         FAIR      61  16  17 E3        29.80R

$$
NMZ519>523-270600-
CENTRAL VALLEYS/CENTRAL HIGHLANDS

CITY           SKY/WX    TMP DP  RH WIND       PRES   REMARKS
ALBUQUERQUE    MOCLDY    56  28  34 SE5       29.78F
MORIARTY ARPT  CLOUDY    50  27  41 CALM      29.82F
CLINES CORNERS CLOUDY    45  23  42 W6        29.85F
BELEN          FAIR      52  17  24 SW8       29.79S
SOCORRO        FAIR      57  17  20 E5        29.78S

$$
NMZ524>526-539-540-270600-
SOUTHCENTRAL MOUNTAINS

CITY           SKY/WX    TMP DP  RH WIND       PRES   REMARKS
RUIDOSO        FAIR      54  14  20 SW18      29.87F

$$
NMZ527>531-270600-
NORTHEAST HIGHLANDS/NORTHEAST PLAINS

CITY           SKY/WX    TMP DP  RH WIND       PRES   REMARKS
LAS VEGAS      FAIR      48  16  27 VRB5      29.80F
RATON          FAIR      42  29  59 NW7       29.78S
CLAYTON        FAIR      42  33  70 S5        29.77F

$$
NMZ532>537-270600-
EASTCENTRAL PLAINS

CITY           SKY/WX    TMP DP  RH WIND       PRES   REMARKS
SANTA ROSA     FAIR      54  20  26 CALM      29.76R
TUCUMCARI      FAIR      53  39  59 NE10      29.72R
CANNON AFB     CLOUDY    57  29  34 E3        29.76R
CLOVIS AIRPORT CLOUDY    54  34  47 SE5       29.77R

$$
NMZ028-029-538-270600-
SOUTHEAST PLAINS

CITY           SKY/WX    TMP DP  RH WIND       PRES   REMARKS
ROSWELL        FAIR      55  28  35 CALM        N/A
ARTESIA        FAIR      55  27  33 SE7       29.74S
CARLSBAD       FAIR      60  26  27 S12       29.73S
HOBBS          FAIR      55  30  38 S7        29.79S


$$



USA.gov is the U.S. government's official web portal to all federal, state and local government web resources and services.